RYR113 LIMJ-LICJ

Flight info

Callsign RYR113
Flight time N/A
Altitude 37000
Route UNITA DCT KONER DCT ELB DCT PODOX DCT TINTO DCT GIANO
Aircraft B738/M-SDE2E3FGHIRWXY/LB1

Departure

Time 2026-04-16 14:32
Airport Genoa Cristoforo Colombo Airport (LIMJ)

Arrival

Time N/A
Airport Falcone–Borsellino Airport (LICJ)
Time Latitude Longitude Altitude Speed Heading
2026-04-16 14:09 44.41464 8.84876 19 ft 0 kts 97°
2026-04-16 14:10 44.41437 8.84908 19 ft 0 kts 62°
2026-04-16 14:24 44.41436 8.84905 19 ft 0 kts 62°
2026-04-16 14:24 44.41432 8.84890 23 ft 2 kts 73°
2026-04-16 14:24 44.41428 8.84867 21 ft 2 kts 90°
2026-04-16 14:24 44.41431 8.84845 23 ft 2 kts 111°
2026-04-16 14:25 44.41438 8.84824 20 ft 2 kts 125°
2026-04-16 14:25 44.41448 8.84806 22 ft 2 kts 123°
2026-04-16 14:25 44.41451 8.84800 22 ft 0 kts 113°
2026-04-16 14:28 44.41450 8.84802 22 ft 1 kts 116°
2026-04-16 14:28 44.41441 8.84815 20 ft 3 kts 136°
2026-04-16 14:29 44.41416 8.84823 21 ft 5 kts 182°
2026-04-16 14:29 44.41380 8.84841 19 ft 7 kts 127°
2026-04-16 14:29 44.41362 8.84912 19 ft 10 kts 105°
2026-04-16 14:29 44.41341 8.85029 19 ft 14 kts 104°
2026-04-16 14:30 44.41314 8.85173 20 ft 16 kts 105°
2026-04-16 14:30 44.41241 8.85280 20 ft 16 kts 177°
2026-04-16 14:30 44.41132 8.85245 21 ft 16 kts 194°
2026-04-16 14:30 44.41049 8.85188 17 ft 13 kts 227°
2026-04-16 14:31 44.41021 8.85095 17 ft 0 kts 277°
2026-04-16 14:31 44.41082 8.84766 18 ft 82 kts 285°
2026-04-16 14:32 44.41312 8.83604 29 ft 162 kts 284°
2026-04-16 14:32 44.41616 8.81970 784 ft 181 kts 283°
2026-04-16 14:32 44.41945 8.80200 1928 ft 183 kts 286°
2026-04-16 14:32 44.42260 8.78455 3203 ft 187 kts 279°
2026-04-16 14:33 44.42011 8.76650 4159 ft 198 kts 240°
2026-04-16 14:33 44.40986 8.75349 4816 ft 204 kts 202°
2026-04-16 14:33 44.39586 8.75171 5414 ft 207 kts 163°
2026-04-16 14:33 44.38277 8.76014 5992 ft 209 kts 151°
2026-04-16 14:34 44.36996 8.76994 6553 ft 211 kts 150°
2026-04-16 14:34 44.35719 8.77983 7070 ft 215 kts 150°
2026-04-16 14:34 44.34336 8.79056 7317 ft 238 kts 150°
2026-04-16 14:34 44.32866 8.80196 7952 ft 241 kts 150°
2026-04-16 14:35 44.31390 8.81319 8675 ft 243 kts 155°
2026-04-16 14:35 44.29706 8.81738 9113 ft 258 kts 182°
2026-04-16 14:35 44.27836 8.81555 9356 ft 281 kts 184°
2026-04-16 14:35 44.25843 8.81342 9866 ft 291 kts 184°
2026-04-16 14:36 44.23790 8.81146 10416 ft 302 kts 184°
2026-04-16 14:36 44.22367 8.81024 10518 ft 318 kts 183°
2026-04-16 14:36 44.20078 8.80845 10710 ft 339 kts 183°
2026-04-16 14:36 44.17680 8.80667 11153 ft 350 kts 183°
2026-04-16 14:37 44.14435 8.80666 12056 ft 354 kts 168°
2026-04-16 14:37 44.12137 8.81899 12746 ft 356 kts 147°
2026-04-16 14:37 44.10794 8.83295 13242 ft 358 kts 140°
2026-04-16 14:37 44.08877 8.85535 13926 ft 363 kts 139°
2026-04-16 14:38 44.06945 8.87844 14567 ft 367 kts 138°
2026-04-16 14:38 44.04995 8.90167 15238 ft 371 kts 139°
2026-04-16 14:38 44.03035 8.92477 15915 ft 375 kts 139°
2026-04-16 14:38 44.01032 8.94817 16596 ft 378 kts 139°
2026-04-16 14:39 43.98997 8.97181 17237 ft 383 kts 139°
2026-04-16 14:39 43.96934 8.99569 17886 ft 388 kts 139°
2026-04-16 14:39 43.94852 9.01976 18505 ft 392 kts 139°
2026-04-16 14:39 43.92747 9.04412 19059 ft 396 kts 139°
2026-04-16 14:40 43.90626 9.06869 19645 ft 399 kts 139°
2026-04-16 14:40 43.88484 9.09352 20228 ft 402 kts 139°
2026-04-16 14:40 43.86325 9.11853 20770 ft 406 kts 139°
2026-04-16 14:40 43.84143 9.14378 21317 ft 409 kts 139°
2026-04-16 14:41 43.81978 9.16882 21857 ft 412 kts 139°
2026-04-16 14:41 43.79761 9.19442 22385 ft 416 kts 139°
2026-04-16 14:41 43.77530 9.22016 22910 ft 419 kts 139°
2026-04-16 14:41 43.75274 9.24616 23425 ft 423 kts 139°
2026-04-16 14:42 43.73008 9.27225 23879 ft 427 kts 139°
2026-04-16 14:42 43.70720 9.29856 24310 ft 429 kts 139°
2026-04-16 14:42 43.68417 9.32503 24769 ft 431 kts 139°
2026-04-16 14:42 43.66100 9.35162 25185 ft 434 kts 139°
2026-04-16 14:43 43.63767 9.37836 25601 ft 437 kts 139°
2026-04-16 14:43 43.61417 9.40528 26010 ft 439 kts 139°
2026-04-16 14:43 43.59064 9.43221 26408 ft 442 kts 139°
2026-04-16 14:43 43.56686 9.45939 26801 ft 445 kts 139°
2026-04-16 14:44 43.54333 9.48628 27180 ft 447 kts 139°
2026-04-16 14:44 43.51929 9.51369 27557 ft 450 kts 139°
2026-04-16 14:44 43.49512 9.54122 27921 ft 452 kts 139°
2026-04-16 14:44 43.47074 9.56892 28285 ft 455 kts 139°
2026-04-16 14:45 43.44626 9.59671 28648 ft 457 kts 139°
2026-04-16 14:45 43.42158 9.62468 29000 ft 459 kts 139°
2026-04-16 14:45 43.39690 9.65263 29341 ft 462 kts 139°
2026-04-16 14:45 43.37199 9.68081 29653 ft 464 kts 139°
2026-04-16 14:46 43.34728 9.70874 29987 ft 466 kts 139°
2026-04-16 14:46 43.32189 9.73743 30296 ft 468 kts 139°
2026-04-16 14:46 43.29689 9.76563 30577 ft 470 kts 140°
2026-04-16 14:46 43.27168 9.79404 30841 ft 471 kts 140°
2026-04-16 14:47 43.24621 9.82271 31150 ft 472 kts 140°
2026-04-16 14:47 43.22085 9.85122 31534 ft 470 kts 140°
2026-04-16 14:47 43.19566 9.87951 31946 ft 468 kts 140°
2026-04-16 14:47 43.17052 9.90772 32325 ft 466 kts 140°
2026-04-16 14:48 43.14565 9.93558 32657 ft 466 kts 140°
2026-04-16 14:48 43.12024 9.96403 32993 ft 466 kts 140°
2026-04-16 14:48 43.09549 9.99172 33367 ft 464 kts 140°
2026-04-16 14:48 43.07050 10.01964 33719 ft 463 kts 140°
2026-04-16 14:49 43.04561 10.04741 34057 ft 462 kts 140°
2026-04-16 14:49 43.02068 10.07520 34334 ft 461 kts 140°
2026-04-16 14:49 42.99588 10.10282 34590 ft 461 kts 140°
2026-04-16 14:49 42.97095 10.13055 34874 ft 460 kts 140°
2026-04-16 14:50 42.94616 10.15809 35146 ft 459 kts 140°
2026-04-16 14:50 42.92139 10.18559 35385 ft 459 kts 140°
2026-04-16 14:50 42.89658 10.21310 35625 ft 459 kts 140°
2026-04-16 14:50 42.87181 10.24054 35871 ft 459 kts 140°
2026-04-16 14:51 42.84701 10.26798 36112 ft 458 kts 140°
2026-04-16 14:51 42.82224 10.29537 36330 ft 458 kts 140°
2026-04-16 14:51 42.79739 10.32282 36577 ft 458 kts 140°
2026-04-16 14:51 42.77270 10.35006 36806 ft 458 kts 140°
2026-04-16 14:53 42.56691 10.46184 37083 ft 458 kts 163°
2026-04-16 14:53 42.53636 10.47386 37083 ft 458 kts 163°
2026-04-16 14:54 42.47523 10.49819 37091 ft 457 kts 163°
2026-04-16 14:54 42.41436 10.52247 37092 ft 457 kts 163°
2026-04-16 14:55 42.35419 10.54640 37091 ft 458 kts 163°
2026-04-16 14:55 42.29167 10.57119 37096 ft 461 kts 162°
2026-04-16 14:56 42.23245 10.60306 37098 ft 462 kts 154°
2026-04-16 14:56 42.17412 10.64008 37094 ft 465 kts 153°
2026-04-16 14:57 42.11539 10.67720 37098 ft 467 kts 153°
2026-04-16 14:57 42.05620 10.71404 37085 ft 469 kts 153°
2026-04-16 14:58 41.96683 10.76918 37086 ft 471 kts 153°
2026-04-16 14:59 41.90763 10.80561 37083 ft 471 kts 153°